N7553B KASH-KASH

Flight info

Callsign N7553B
Flight time 0h 17m
Altitude 7000
Route N/A
Aircraft C208/L-SDFGR/C

Departure

Time 2026-04-26 12:55
Airport Nashua Airport / Boire Field (KASH)

Arrival

Time 2026-04-26 13:12
Airport Nashua Airport / Boire Field (KASH)
Time Latitude Longitude Altitude Speed Heading
2026-04-26 12:49 42.78219 -71.51842 209 ft 0 kts 46°
2026-04-26 12:52 42.78220 -71.51840 208 ft 4 kts 59°
2026-04-26 12:52 42.78134 -71.51675 202 ft 28 kts 121°
2026-04-26 12:52 42.78026 -71.51429 201 ft 25 kts 106°
2026-04-26 12:53 42.77910 -71.51166 199 ft 40 kts 122°
2026-04-26 12:53 42.77830 -71.50941 205 ft 16 kts 52°
2026-04-26 12:53 42.77800 -71.50852 198 ft 24 kts 123°
2026-04-26 12:53 42.77709 -71.50543 201 ft 25 kts 32°
2026-04-26 12:54 42.77800 -71.50490 195 ft 18 kts 338°
2026-04-26 12:54 42.77927 -71.50742 197 ft 63 kts 303°
2026-04-26 12:54 42.78263 -71.51455 248 ft 107 kts 302°
2026-04-26 12:54 42.78678 -71.52272 659 ft 101 kts 313°
2026-04-26 12:55 42.79278 -71.52684 1139 ft 92 kts 352°
2026-04-26 12:55 42.79967 -71.52633 1353 ft 117 kts
2026-04-26 12:55 42.80810 -71.52466 1568 ft 128 kts 10°
2026-04-26 12:55 42.81725 -71.52262 1763 ft 137 kts
2026-04-26 12:56 42.82648 -71.52022 2084 ft 132 kts 13°
2026-04-26 12:56 42.83532 -71.51655 2340 ft 135 kts 20°
2026-04-26 12:56 42.84313 -71.50921 2483 ft 145 kts 58°
2026-04-26 12:56 42.84635 -71.49557 2478 ft 158 kts 82°
2026-04-26 12:57 42.84680 -71.48052 2376 ft 170 kts 105°
2026-04-26 12:57 42.83881 -71.46973 2341 ft 162 kts 165°
2026-04-26 12:57 42.83034 -71.46731 2460 ft 152 kts 172°
2026-04-26 12:58 42.80963 -71.46391 2611 ft 144 kts 164°
2026-04-26 12:58 42.80347 -71.45384 2588 ft 153 kts 99°
2026-04-26 12:58 42.80575 -71.43978 2505 ft 158 kts 70°
2026-04-26 12:58 42.80728 -71.43413 2360 ft 169 kts 70°
2026-04-26 12:59 42.80942 -71.42071 2592 ft 155 kts 96°
2026-04-26 12:59 42.80282 -71.40986 2338 ft 173 kts 172°
2026-04-26 13:00 42.79358 -71.41667 2557 ft 156 kts 250°
2026-04-26 13:00 42.79603 -71.43116 2289 ft 173 kts 315°
2026-04-26 13:00 42.80684 -71.43741 2162 ft 176 kts 355°
2026-04-26 13:00 42.81901 -71.43774 2268 ft 163 kts
2026-04-26 13:01 42.82798 -71.44329 1980 ft 177 kts 283°
2026-04-26 13:01 42.81960 -71.45256 1696 ft 190 kts 161°
2026-04-26 13:01 42.80904 -71.44349 1490 ft 167 kts 117°
2026-04-26 13:01 42.81326 -71.42989 1055 ft 153 kts 55°
2026-04-26 13:02 42.81313 -71.41911 1611 ft 133 kts 147°
2026-04-26 13:02 42.80452 -71.42265 1616 ft 144 kts 248°
2026-04-26 13:02 42.80745 -71.43186 1332 ft 126 kts
2026-04-26 13:02 42.81692 -71.43380 1313 ft 147 kts 311°
2026-04-26 13:03 42.81768 -71.44688 1242 ft 146 kts 248°
2026-04-26 13:03 42.81029 -71.45424 1154 ft 150 kts 176°
2026-04-26 13:03 42.79986 -71.45083 1245 ft 146 kts 198°
2026-04-26 13:03 42.79679 -71.46224 1077 ft 147 kts 289°
2026-04-26 13:04 42.80216 -71.47236 952 ft 123 kts 323°
2026-04-26 13:04 42.81005 -71.47434 1161 ft 108 kts 34°
2026-04-26 13:04 42.81372 -71.46366 235 ft 128 kts 72°
2026-04-26 13:04 42.81625 -71.45380 833 ft 117 kts 72°
2026-04-26 13:05 42.81555 -71.44195 1149 ft 111 kts 56°
2026-04-26 13:05 42.82041 -71.44634 675 ft 151 kts 237°
2026-04-26 13:05 42.81533 -71.45673 315 ft 123 kts 246°
2026-04-26 13:05 42.81327 -71.46678 366 ft 84 kts 255°
2026-04-26 13:06 42.80958 -71.47453 505 ft 119 kts 193°
2026-04-26 13:06 42.80775 -71.47447 516 ft 125 kts 162°
2026-04-26 13:07 42.80594 -71.47311 483 ft 134 kts 145°
2026-04-26 13:07 42.79783 -71.46699 858 ft 126 kts 152°
2026-04-26 13:07 42.80130 -71.46339 259 ft 139 kts 313°
2026-04-26 13:07 42.80823 -71.46913 134 ft 94 kts 352°
2026-04-26 13:08 42.81329 -71.47106 282 ft 75 kts 332°
2026-04-26 13:08 42.81622 -71.47739 536 ft 91 kts 231°
2026-04-26 13:08 42.80994 -71.48110 802 ft 104 kts 191°
2026-04-26 13:08 42.80269 -71.47555 845 ft 133 kts 141°
2026-04-26 13:09 42.79655 -71.46735 1360 ft 119 kts 130°
2026-04-26 13:09 42.79234 -71.45714 1532 ft 135 kts 103°
2026-04-26 13:09 42.78496 -71.44939 877 ft 184 kts 174°
2026-04-26 13:09 42.77639 -71.44391 1501 ft 129 kts 127°
2026-04-26 13:10 42.77894 -71.43191 1644 ft 132 kts 53°
2026-04-26 13:10 42.78626 -71.43475 1258 ft 169 kts 283°
2026-04-26 13:10 42.77995 -71.44694 1089 ft 151 kts 203°
2026-04-26 13:10 42.77020 -71.44172 1017 ft 149 kts 154°
2026-04-26 13:11 42.76439 -71.44894 1210 ft 156 kts 274°
2026-04-26 13:11 42.76593 -71.46424 1053 ft 160 kts 281°
2026-04-26 13:11 42.76802 -71.47795 796 ft 131 kts 283°
2026-04-26 13:11 42.77095 -71.48874 724 ft 126 kts 295°
2026-04-26 13:12 42.77520 -71.49899 477 ft 121 kts 304°
2026-04-26 13:12 42.78006 -71.50897 198 ft 106 kts 307°
2026-04-26 13:12 42.77943 -71.50772 197 ft 0 kts 313°
2026-04-26 13:12 42.77978 -71.50848 201 ft 26 kts 300°
2026-04-26 13:13 42.78086 -71.51084 209 ft 22 kts 298°
2026-04-26 13:13 42.77981 -71.51223 208 ft 27 kts 252°
2026-04-26 13:13 42.78043 -71.51421 201 ft 23 kts 250°
2026-04-26 13:13 42.78090 -71.51550 207 ft 11 kts 313°
2026-04-26 13:14 42.78150 -71.51688 202 ft 18 kts 328°
2026-04-26 13:14 42.78168 -71.51724 202 ft 0 kts 289°